This demonstration page uses our WeatherBlox Daily Observations layout. Learn more.

Left ArrowRight Arrow

Hourly Observations for November 2, 2015

Temp ( °F °C ) Dew Point ( °F °C ) Humidity (%) Winds ( mph kmh ) Pressure ( in mb ) Visibility ( mi km ) Precip ( " mm )
12:53 am 00:53 Clear 50 10 45 7.2 83 83 Calm 29.89 1012 N/A 0.00 0.00
1:53 am 01:53 Clear 48 8.9 44 6.7 86 86 ESE 3 6 29.89 1012 N/A 0.00 0.00
2:53 am 02:53 Clear 50 10 44 6.7 80 80 Calm 29.88 1012 N/A 0.00 0.00
3:53 am 03:53 Clear 47 8.3 43 6.1 86 86 Calm 29.88 1012 N/A 0.00 0.00
4:53 am 04:53 Clear 45 7.2 42 5.6 90 90 E 3 6 29.88 1012 N/A 0.00 0.00
5:53 am 05:53 Clear 43 6.1 41 5 93 93 Calm 29.90 1013 N/A 0.00 0.00
6:53 am 06:53 Clear 45 7.2 40 4.4 83 83 SE 3 6 29.92 1013 N/A 0.00 0.00
7:53 am 07:53 Sunny 46 7.8 43 6.1 89 89 Calm 29.94 1014 N/A 0.00 0.00
8:53 am 08:53 Sunny 54 12.2 46 7.8 75 75 Calm 29.94 1014 N/A 0.00 0.00
9:53 am 09:53 Sunny 61 16.1 47 8.3 60 60 VRB 3 6 29.93 1014 10 16 0.00 0.00
10:53 am 10:53 Sunny 68 20 47 8.3 47 47 SSW 5 7 29.92 1013 10 16 0.00 0.00
11:53 am 11:53 Sunny 73 22.8 46 7.8 38 38 SSW 6 9 29.90 1013 10 16 0.00 0.00
12:53 pm 12:53 Sunny 75 23.9 46 7.8 36 36 WSW 5 7 29.87 1011 10 16 0.00 0.00
1:53 pm 13:53 Sunny 78 25.6 44 6.7 30 30 SSW 7 11 29.84 1011 10 16 0.00 0.00
2:53 pm 14:53 Sunny 80 26.7 42 5.6 26 26 SSW 7 11 29.81 1010 10 16 0.00 0.00
3:53 pm 15:53 Sunny 81 27.2 43 6.1 26 26 SSW 9 15 29.80 1009 10 16 0.00 0.00
4:53 pm 16:53 Sunny 80 26.7 42 5.6 26 26 S 8 13 29.81 1009 10 16 0.00 0.00
5:53 pm 17:53 Sunny 73 22.8 45 7.2 37 37 SSE 7 11 29.82 1010 10 16 0.00 0.00
6:53 pm 18:53 Clear 67 19.4 45 7.2 45 45 SE 9 15 29.83 1010 10 16 0.00 0.00
7:53 pm 19:53 Clear 66 18.9 43 6.1 43 43 ESE 9 15 29.84 1011 10 16 0.00 0.00
8:53 pm 20:53 Clear 63 17.2 43 6.1 48 48 ESE 10 17 29.84 1010 10 16 0.00 0.00
9:53 pm 21:53 Clear 63 17.2 44 6.7 50 50 ESE 12 19 29.83 1010 10 16 0.00 0.00
10:53 pm 22:53 Clear 61 16.1 46 7.8 58 58 ESE 9 15 29.83 1010 10 16 0.00 0.00
11:53 pm 23:53 Clear 59 15 46 7.8 62 62 SE 9 15 29.82 1010 10 16 0.00 0.00

Powered by AerisWeather